Simultaneous Nadir Overpasses (SNOs) Predictions

Prediction of SNOs between GOES-15 and NPP Satellite Orbit:

Table of predicted SNOs for the next 14.0 days since TLE Epoch: 5/25/2014
Index Date Time (GOES-15) GOES-15 Lat,Lon NPP Lat,Lon Distance(km) Time Diff (sec)
1 05/26/2014 10:30:40 0.01,-134.98 0.11,-135.31 38.86 80
2 05/27/2014 10:14:37 0.01,-135.02 -0.95,-130.79 481.65 80
3 05/28/2014 22:33:56 0.00,-135.08 -0.25,-136.09 115.67 80
4 05/29/2014 22:17:53 -0.00,-135.12 0.82,-131.57 404.58 80
5 05/31/2014 10:37:02 -0.01,-135.15 0.37,-136.84 191.71 80
6 06/01/2014 10:20:59 -0.00,-135.18 -0.64,-132.30 328.21 80
7 06/02/2014 22:40:18 0.01,-135.24 -0.50,-137.62 270.02 80
8 06/03/2014 22:24:15 0.00,-135.27 0.51,-133.08 249.78 80
9 06/05/2014 10:43:24
